Flag for Germany Weather past 2 weeks in Weil am Rhein, Baden-Württemberg, Germany

Now
53 °F

Cool.


Feels Like: 53 °F
Forecast: 52 / 76 °F
Wind: 1 mph from Northwest

Location: Bale-Mulhouse

Current Time: Sep 16, 2014 at 3:47:26 AM

Latest Report: Sep 16, 2014 at 3:00 AM


Visibility: 1 mi

Pressure: 29.98 "Hg

Humidity: 96%

Dew point: 52 °F

Location of Weil am RheinLocation

Historic Weather in Weil am Rhein — Graph

°F

Weil am Rhein temperature yesterday

Maximum temperature yesterday: 75 °F (at 4:00 PM)
Minimum temperature yesterday: 52 °F (at 2:00 AM)
Average temperature yesterday: 61 °F

Past Weeks' High & Low Weather Summary

 TemperatureHumidityPressure
High81 °F (Sep 8, 4:00 PM)99% (Sep 15, 4:00 AM)30.18 "Hg (Sep 15, 4:00 AM)
Low46 °F (Sep 2, 3:00 AM)43% (Sep 5, 6:00 PM)29.84 "Hg (Sep 6, 5:00 PM)
Average61 °F83%30.02 "Hg
* Reported Sep 1 2:00 AM — Sep 16 2:00 AM, Weil am Rhein, Weather by CustomWeather, © 2014

Note: Actual official high and low records may vary slightly from our data, if they occured in-between our weather recording intervals... More about our weather records

Advertising

Weil am Rhein weather history for previous 24 hours

 ConditionsComfort  
Time TempWeatherWind HumidityBarometerVisibility
2:00 AM
Sep 16
54 °FCool.2 mph95%29.99 "Hg4 mi
1:00 AM55 °FCool.1 mph95%29.98 "Hg1 mi
12:00 AM57 °FPassing clouds.1 mph96%29.98 "Hg6 mi
11:00 PM
Sep 15
59 °FPassing clouds.6 mph92%29.97 "Hg10 mi
10:00 PM60 °FPassing clouds.1 mph90%29.97 "Hg11 mi
9:00 PM63 °FOvercast.2 mph88%29.95 "Hg11 mi
8:00 PM66 °FOvercast.5 mph84%29.93 "Hg16 mi
7:00 PM67 °FOvercast.3 mph83%29.92 "Hg16 mi
6:00 PM71 °FOvercast.3 mph63%29.91 "Hg16 mi
5:00 PM75 °FScattered clouds.5 mph58%29.90 "Hg12 mi
4:00 PM75 °FMild.3 mph54%29.91 "Hg28 mi
3:00 PM74 °FPartly sunny.3 mph63%29.93 "Hg11 mi
2:00 PM70 °FPartly sunny.5 mph71%29.95 "Hg11 mi
1:00 PM67 °FPartly sunny.6 mph75%29.97 "Hg9 mi
12:00 PM64 °FPartly sunny.7 mph88%29.99 "Hg9 mi
11:00 AM59 °FPartly sunny.5 mph97%30.01 "Hg5 mi
10:00 AM56 °FFog.3 mph99%30.01 "Hg2 mi
9:00 AM54 °FFog.2 mph99%30.01 "Hg0 mi
8:00 AM54 °FFog.3 mph98%30.01 "Hg0 mi
7:00 AM54 °FFog.3 mph98%30.00 "Hg0 mi
6:00 AM54 °FFog.2 mph98%30.00 "Hg0 mi
5:00 AM55 °FFog.No wind98%30.00 "Hg0 mi
4:00 AM55 °FLight snow. Dense fog.2 mph99%30.00 "Hg0 mi
3:00 AM52 °FHeavy rain. Low clouds.No wind98%30.00 "Hg0 mi
Weather by CustomWeather, © 2014

See weather overviewHow to use our weather pages